{"data":{"norad_id":58698,"epoch":"2026-05-25T04:01:38.129952Z","epoch_age_seconds":70711,"freshness":"FRESH","line1":"1 58698U 24003A   26145.16780243  .00000049  00000+0  00000+0 0  9995","line2":"2 58698   0.0095 248.9877 0000109 193.4561 280.3943  1.00273907  7214","mean_motion":1.00273907,"eccentricity":1.09e-5,"inclination_deg":0.0095,"raan_deg":248.9877,"arg_perigee_deg":193.4561,"mean_anomaly_deg":280.3943,"bstar":0,"rev_number":721,"period_min":1436.0665132954,"perigee_km":35785.540508956,"apogee_km":35786.459687145,"semimajor_km":42164.13709805,"source":"CELESTRAK","updated_at":"2026-05-25T13:38:14.143852Z"}}